CW9928 Weather Reports


Display with metric or nautical units.
time (UTC)temp
F
wind
direction
speed
MPH
gust
MPH
rain 1hr
in
rain 24hr
in
rain mn
in
humidity
%
barometer
mb
20260508205043 57 233 0.0 6.0 0.00 0.08 0.04 51 1010.6
20260508204526 57 233 1.0 5.0 0.00 0.08 0.04 52 1010.7
20260508204003 57 232 1.0 4.0 0.00 0.08 0.04 51 1010.7
20260508203547 57 230 0.0 4.0 0.00 0.08 0.04 52 1010.7
20260508203028 57 231 0.0 5.0 0.00 0.08 0.04 50 1010.7
20260508202507 57 232 0.0 5.0 0.00 0.08 0.04 50 1010.8
20260508202051 57 232 0.0 4.0 0.00 0.08 0.04 53 1010.9
20260508201531 56 232 0.0 2.0 0.00 0.08 0.04 54 1011.0
20260508201012 56 232 0.0 2.0 0.00 0.08 0.04 55 1011.2
20260508200554 55 232 0.0 2.0 0.00 0.08 0.04 56 1011.3
20260508200021 55 232 0.0 4.0 0.00 0.08 0.04 57 1011.3
20260508195601 55 232 0.0 4.0 0.00 0.08 0.04 56 1011.3
20260508195040 54 232 0.0 2.0 0.00 0.08 0.04 57 1011.4
20260508194531 54 232 0.0 6.0 0.00 0.08 0.04 59 1011.4
20260508194106 54 232 0.0 6.0 0.00 0.08 0.04 59 1011.4
20260508193544 54 227 1.0 6.0 0.00 0.08 0.04 58 1011.5
20260508193024 53 227 1.0 7.0 0.00 0.08 0.04 59 1011.5
20260508192504 53 241 1.0 7.0 0.00 0.08 0.04 61 1011.6
20260508192048 53 245 2.0 3.0 0.00 0.08 0.04 60 1011.7
20260508191529 53 241 0.0 4.0 0.00 0.08 0.04 60 1011.8
20260508191008 54 241 0.0 4.0 0.00 0.08 0.04 61 1011.7
20260508190555 54 241 0.0 2.0 0.00 0.08 0.04 61 1011.7
20260508190014 54 241 0.0 5.0 0.00 0.08 0.04 59 1011.7
20260508185558 54 241 1.0 6.0 0.00 0.08 0.04 58 1011.8
20260508185038 55 207 1.0 6.0 0.00 0.08 0.04 56 1011.7
20260508184519 55 150 0.0 6.0 0.00 0.08 0.04 57 1011.7
20260508184102 55 360 0.0 2.0 0.00 0.08 0.04 56 1011.7
20260508183542 55 357 0.0 2.0 0.00 0.08 0.04 51 1011.8
20260508183022 55 357 0.0 5.0 0.00 0.08 0.04 51 1012.0
20260508182502 56 357 0.0 5.0 0.00 0.08 0.04 49 1012.0
20260508182047 56 260 0.0 4.0 0.00 0.08 0.04 50 1011.8
20260508181537 56 262 0.0 5.0 0.00 0.08 0.04 49 1012.0
20260508181009 56 261 0.0 7.0 0.00 0.08 0.04 54 1012.1
20260508180554 56 260 2.0 7.0 0.00 0.08 0.04 50 1012.1
20260508180013 55 246 0.0 4.0 0.00 0.08 0.04 53 1012.0
20260508175556 55 245 0.0 6.0 0.00 0.08 0.04 55 1012.1
20260508175037 55 245 0.0 6.0 0.00 0.08 0.04 51 1012.2
20260508174517 54 287 1.0 10.0 0.00 0.08 0.04 54 1012.3
20260508174103 54 285 2.0 10.0 0.00 0.08 0.04 51 1012.4
20260508173540 55 248 1.0 5.0 0.00 0.08 0.04 57 1012.4
20260508173033 55 283 0.0 5.0 0.00 0.08 0.04 53 1012.5
20260508172603 55 285 1.0 6.0 0.00 0.08 0.04 53 1012.6
20260508172043 54 285 0.0 6.0 0.00 0.08 0.04 57 1012.6
20260508171526 54 275 1.0 7.0 0.00 0.08 0.04 59 1012.8
20260508171003 54 297 3.0 7.0 0.00 0.08 0.04 54 1012.8
20260508170547 54 283 0.0 4.0 0.00 0.08 0.04 56 1012.8
20260508170009 53 283 0.0 4.0 0.00 0.08 0.04 55 1012.8
20260508165551 53 283 0.0 7.0 0.00 0.08 0.04 58 1012.8
20260508165030 53 283 0.0 7.0 0.00 0.08 0.04 58 1012.9
20260508164510 52 253 1.0 6.0 0.00 0.08 0.04 59 1012.8
20260508164053 52 252 2.0 5.0 0.00 0.08 0.04 58 1012.9
20260508163533 52 268 2.0 7.0 0.00 0.08 0.04 59 1012.9
20260508163019 52 269 3.0 7.0 0.00 0.08 0.04 61 1013.1
20260508162557 51 283 0.0 7.0 0.00 0.08 0.04 60 1013.1
20260508162037 51 235 0.0 7.0 0.00 0.08 0.04 61 1013.2
20260508161524 51 234 2.0 7.0 0.00 0.08 0.04 59 1013.3
20260508161102 51 285 3.0 8.0 0.00 0.08 0.04 62 1013.4
20260508160540 51 289 3.0 8.0 0.00 0.08 0.04 63 1013.3
20260508160125 51 275 1.0 6.0 0.00 0.08 0.04 64 1013.4
20260508155543 51 274 1.0 6.0 0.00 0.08 0.04 63 1013.4
20260508155023 51 275 2.0 6.0 0.00 0.08 0.04 63 1013.3
20260508154503 51 281 2.0 5.0 0.00 0.08 0.04 65 1013.3
20260508154047 50 283 0.0 4.0 0.00 0.08 0.04 65 1013.3
20260508153527 50 281 0.0 5.0 0.00 0.08 0.04 65 1013.3
20260508153007 50 281 1.0 5.0 0.00 0.08 0.04 65 1013.5
20260508152551 49 294 0.0 8.0 0.00 0.08 0.04 67 1013.4
20260508152031 49 295 2.0 8.0 0.00 0.08 0.04 66 1013.6
20260508151511 49 231 2.0 7.0 0.00 0.08 0.04 71 1013.6
20260508151054 49 227 2.0 7.0 0.00 0.08 0.04 70 1013.6
20260508150534 48 236 0.0 6.0 0.00 0.08 0.04 74 1013.7
20260508150118 48 239 3.0 7.0 0.00 0.08 0.04 74 1013.7
20260508145541 47 284 2.0 7.0 0.00 0.08 0.04 76 1013.7
20260508145020 47 284 0.0 4.0 0.00 0.08 0.04 78 1013.7
20260508144604 47 284 0.0 5.0 0.00 0.08 0.04 80 1013.6
20260508144044 47 283 1.0 6.0 0.00 0.08 0.04 80 1013.6
20260508143524 46 284 2.0 6.0 0.00 0.08 0.04 81 1013.6
20260508143014 46 302 3.0 5.0 0.00 0.08 0.04 81 1013.6
20260508142548 46 320 1.0 5.0 0.00 0.08 0.04 82 1013.6
20260508142028 46 326 0.0 2.0 0.00 0.08 0.04 84 1013.5
20260508141508 45 326 0.0 4.0 0.00 0.08 0.04 83 1013.5
20260508141052 45 326 0.0 4.0 0.00 0.08 0.04 83 1013.5
20260508140535 45 327 0.0 5.0 0.00 0.08 0.04 83 1013.4
20260508140115 45 327 1.0 5.0 0.00 0.08 0.04 84 1013.5
20260508135537 45 329 0.0 4.0 0.00 0.08 0.04 85 1013.6
20260508135018 45 329 0.0 5.0 0.00 0.08 0.04 85 1013.6
20260508134605 44 329 0.0 5.0 0.00 0.08 0.04 86 1013.6
20260508134042 44 303 2.0 5.0 0.00 0.08 0.04 86 1013.5
20260508133521 44 317 1.0 2.0 0.00 0.08 0.04 86 1013.5
20260508133001 44 317 0.0 4.0 0.00 0.08 0.04 87 1013.5
20260508132541 44 306 0.0 4.0 0.00 0.08 0.04 87 1013.5
20260508132026 44 305 0.0 1.0 0.00 0.08 0.04 87 1013.4
20260508131502 44 305 0.0 2.0 0.00 0.08 0.04 88 1013.5
20260508131046 44 305 0.0 4.0 0.00 0.08 0.04 88 1013.5
20260508130525 43 305 0.0 4.0 0.00 0.08 0.04 88 1013.7
20260508130110 43 297 0.0 2.0 0.00 0.08 0.04 88 1013.7
20260508125532 43 297 0.0 2.0 0.00 0.08 0.04 88 1013.8
20260508125012 43 297 0.0 0.0 0.00 0.08 0.04 89 1013.6
20260508124556 43 297 0.0 0.0 0.00 0.08 0.04 88 1013.5
20260508124036 43 297 0.0 1.0 0.00 0.08 0.04 89 1013.6
20260508123516 43 297 0.0 0.0 0.00 0.08 0.04 89 1013.4
20260508123108 43 297 0.0 0.0 0.00 0.08 0.04 90 1013.4
20260508122539 43 297 0.0 0.0 0.00 0.08 0.04 90 1013.3
20260508122016 42 297 0.0 0.0 0.00 0.08 0.04 90 1013.3
20260508121602 42 297 0.0 0.0 0.01 0.08 0.04 90 1013.3
20260508121040 42 297 0.0 0.0 0.01 0.08 0.04 90 1013.2
20260508120521 42 297 0.0 0.0 0.01 0.08 0.04 90 1013.3
20260508120104 42 297 0.0 0.0 0.01 0.08 0.04 89 1013.3
20260508115526 42 297 0.0 0.0 0.02 0.08 0.04 89 1013.5
20260508115004 42 297 0.0 0.0 0.03 0.08 0.04 89 1013.3
20260508114549 42 297 0.0 0.0 0.03 0.08 0.04 89 1013.2
20260508114030 42 297 0.0 0.0 0.04 0.08 0.04 88 1013.2
20260508113509 42 297 0.0 0.0 0.04 0.08 0.04 87 1013.2
20260508113054 42 297 0.0 0.0 0.04 0.08 0.04 87 1013.2
20260508112533 42 297 0.0 0.0 0.04 0.08 0.04 87 1013.1
20260508112013 42 297 0.0 0.0 0.04 0.08 0.04 86 1013.1
20260508111603 42 297 0.0 2.0 0.03 0.07 0.03 86 1013.0
20260508111037 42 297 0.0 4.0 0.03 0.07 0.03 85 1013.0
20260508110517 42 297 0.0 3.0 0.03 0.07 0.03 85 1013.2
20260508110104 42 299 0.0 6.0 0.03 0.07 0.03 85 1013.1
20260508105523 43 299 1.0 6.0 0.02 0.06 0.02 85 1013.1
20260508105001 43 257 1.0 5.0 0.01 0.05 0.01 85 1013.2
20260508104545 43 239 1.0 4.0 0.01 0.05 0.01 85 1013.1
20260508104026 43 239 0.0 4.0 0.00 0.04 0.00 85 1013.0
20260508103506 43 239 0.0 4.0 0.00 0.04 0.00 85 1012.8
20260508103050 43 239 0.0 3.0 0.00 0.04 0.00 84 1012.7
20260508102530 43 239 0.0 2.0 0.00 0.04 0.00 84 1012.6
20260508102010 43 239 0.0 2.0 0.00 0.04 0.00 84 1012.6
20260508101554 43 239 0.0 2.0 0.00 0.04 0.00 83 1012.5
20260508101035 43 239 0.0 4.0 0.00 0.04 0.00 83 1012.3
20260508100513 44 239 0.0 4.0 0.00 0.04 0.00 82 1012.4
20260508100058 44 239 0.0 2.0 0.00 0.04 0.00 83 1012.3
20260508095521 44 239 0.0 4.0 0.00 0.04 0.00 82 1012.3
20260508095104 44 239 0.0 4.0 0.00 0.04 0.00 82 1012.2
20260508094550 44 239 0.0 4.0 0.00 0.04 0.00 83 1012.2
20260508094024 44 239 0.0 4.0 0.00 0.04 0.00 82 1012.2
20260508093504 44 239 0.0 5.0 0.00 0.04 0.00 82 1012.1
20260508093050 44 239 0.0 1.0 0.00 0.04 0.00 82 1012.1
20260508092528 44 239 0.0 1.0 0.00 0.04 0.00 82 1012.2
20260508092007 44 239 0.0 2.0 0.00 0.04 0.00 81 1012.3
20260508091551 44 239 0.0 2.0 0.00 0.04 0.00 81 1012.2
20260508091032 44 239 0.0 2.0 0.00 0.04 0.00 81 1012.0
20260508090511 44 239 0.0 2.0 0.00 0.04 0.00 81 1012.2
20260508090053 44 239 0.0 5.0 0.00 0.04 0.00 80 1012.4
20260508085513 44 239 1.0 5.0 0.00 0.04 0.00 80 1012.4
20260508085101 44 238 2.0 5.0 0.00 0.04 0.00 80 1012.4
20260508084538 44 238 0.0 4.0 0.00 0.04 0.00 80 1012.3
20260508084018 44 238 2.0 5.0 0.00 0.04 0.00 81 1012.3
20260508083602 44 238 0.0 5.0 0.00 0.04 0.00 81 1012.3
20260508083042 44 237 0.0 6.0 0.00 0.04 0.00 81 1012.2
20260508082522 44 237 1.0 6.0 0.00 0.04 0.00 81 1012.4
20260508082002 44 248 0.0 6.0 0.00 0.04 0.00 81 1012.5
20260508081602 44 254 2.0 6.0 0.00 0.04 0.00 83 1012.4
20260508081026 44 255 2.0 6.0 0.00 0.04 0.00 83 1012.4
20260508080510 44 262 2.0 6.0 0.00 0.04 0.00 83 1012.4
20260508080020 44 262 0.0 5.0 0.00 0.04 0.00 83 1012.6
20260508075600 44 263 0.0 3.0 0.00 0.04 0.00 84 1012.5
20260508075039 44 273 0.0 2.0 0.00 0.04 0.00 84 1012.4
20260508074520 43 273 0.0 2.0 0.00 0.04 0.00 84 1012.4
20260508074102 43 273 0.0 4.0 0.00 0.04 0.00 85 1012.4
20260508073542 43 273 1.0 4.0 0.00 0.04 0.00 85 1012.3
20260508073021 43 274 0.0 2.0 0.00 0.04 0.00 86 1012.3
20260508072502 43 274 0.0 2.0 0.00 0.04 0.00 87 1012.3
20260508072045 43 275 1.0 2.0 0.00 0.04 0.00 87 1012.3
20260508071529 43 275 0.0 4.0 0.00 0.04 0.00 88 1012.3
20260508071009 42 275 0.0 4.0 0.00 0.04 0.00 89 1012.4
20260508070549 42 276 0.0 2.0 0.00 0.04 0.00 90 1012.4
20260508070011 42 276 0.0 4.0 0.00 0.04 0.00 91 1012.5
20260508065554 42 276 0.0 4.0 0.00 0.04 0.00 91 1012.5
20260508065035 42 276 0.0 2.0 0.00 0.04 0.00 91 1012.6
20260508064518 42 276 0.0 2.0 0.00 0.04 0.00 91 1012.6
20260508064059 41 276 0.0 2.0 0.00 0.04 0.00 92 1012.6
20260508063539 41 276 0.0 2.0 0.00 0.04 0.00 92 1012.6
20260508063020 41 276 0.0 0.0 0.00 0.04 0.00 92 1012.7